Weather History for Elko, NV

Change the Weather History Date:

Saturday, July 6, 2013

  Actual Average Record
Temperature  
Mean Temperature 78 °F 69 °F  
Max Temperature 95 °F 88 °F 104 °F (2007)
Min Temperature 60 °F 49 °F 34 °F (1903)
Degree Days  
Heating Degree Days 0 1  
Month to date heating degree days 0 6  
Since 1 June heating degree days 63 137  
Since 1 July heating degree days 0 6  
Cooling Degree Days 13 5  
Month to date cooling degree days 94 26  
Year to date cooling degree days 221 77  
Since 1 June cooling degree days 217 73  
Growing Degree Days 26 (Base 50)    
Moisture  
Dew Point 40 °F    
Average Humidity 41    
Maximum Humidity 72    
Minimum Humidity 10    
Precipitation  
Precipitation 0.00 in 0.01 in 0.68 in (2006)
Month to date precipitation 0.38 0.06  
Year to date precipitation 3.24 5.60  
Snow  
Snow 0.00 in 0.00 in 0.00 in (1888)
Month to date snowfall 0.0 0.0  
Since 1 June snowfall 0.0 0.0  
Since 1 July snowfall 0.0 0.0  
Snow Depth 0.00 in    
Sea Level Pressure  
Sea Level Pressure 29.72 in    
Wind  
Wind Speed 5 mph (NE)    
Max Wind Speed 23 mph    
Max Gust Speed 30 mph    
Visibility 10 miles    
Events      
T = Trace of Precipitation, MM = Missing Value Source: NWS Daily Summary

Daily Weather History Graph

Daily Weather History Graph

Search for Another Location

Airport:

Trip Planner

Search our weather history database for the weather conditions in past years. The results will help you decide how hot, cold, wet, or windy it might be!

Date:

Astronomy

Jul. 06, 2013 Rise Set
Actual Time 5:18 AM PDT 8:17 PM PDT
Civil Twilight 4:45 AM PDT 8:50 PM PDT
Nautical Twilight 4:03 AM PDT 9:32 PM PDT
Astronomical Twilight 3:14 AM PDT 10:21 PM PDT
Moon 4:08 AM PDT (7/6) 7:01 PM PDT (7/6)
Length of Visible Light 16h 05m
Length of Day
14h 59m
Waning Crescent, 2% of the Moon is Illuminated
Jul 6
Waning Crescent
Jul 8
New
Jul 15
First Quarter
Jul 22
Full
Jul 29
Last Quarter

Hourly Weather History & Observations

Time (PDT) Temp. Dew Point Humidity Pressure Visibility Wind Dir Wind Speed Gust Speed Precip Events Conditions
12:56 AM 70.0 °F 51.1 °F 51% 29.74 in 10.0 mi NE 8.1 mph - N/A   Clear
1:56 AM 68.0 °F 48.9 °F 50% 29.74 in 10.0 mi East 5.8 mph - N/A   Clear
2:56 AM 66.9 °F 48.0 °F 51% 29.74 in 10.0 mi East 11.5 mph - N/A   Clear
3:56 AM 63.0 °F 48.9 °F 60% 29.74 in 10.0 mi ENE 3.5 mph - N/A   Clear
4:56 AM 62.1 °F 50.0 °F 65% 29.76 in 10.0 mi NE 5.8 mph - N/A   Clear
5:56 AM 60.1 °F 51.1 °F 72% 29.78 in 10.0 mi ENE 6.9 mph - N/A   Clear
6:56 AM 64.9 °F 51.1 °F 61% 29.79 in 10.0 mi ENE 3.5 mph - N/A   Clear
7:56 AM 70.0 °F 51.1 °F 51% 29.78 in 10.0 mi Calm Calm - N/A   Clear
8:56 AM 75.0 °F 50.0 °F 41% 29.78 in 10.0 mi Calm Calm - N/A   Clear
9:56 AM 78.1 °F 50.0 °F 37% 29.78 in 10.0 mi Calm Calm - N/A   Clear
10:56 AM 82.9 °F 46.0 °F 27% 29.76 in 10.0 mi SSW 8.1 mph - N/A   Clear
11:56 AM 86.0 °F 42.1 °F 21% 29.75 in 10.0 mi SSW 8.1 mph - N/A   Clear
12:56 PM 88.0 °F 30.9 °F 13% 29.73 in 10.0 mi WSW 9.2 mph - N/A   Clear
1:56 PM 91.0 °F 34.0 °F 13% 29.71 in 10.0 mi SSW 9.2 mph - N/A   Clear
2:56 PM 91.0 °F 32.0 °F 12% 29.68 in 10.0 mi Variable 5.8 mph 18.4 mph N/A   Clear
3:56 PM 93.9 °F 30.9 °F 11% 29.65 in 10.0 mi WSW 17.3 mph 24.2 mph N/A   Clear
4:56 PM 93.0 °F 30.9 °F 11% 29.64 in 10.0 mi West 3.5 mph - N/A   Clear
5:56 PM 91.9 °F 30.0 °F 11% 29.64 in 10.0 mi West 9.2 mph - N/A   Clear
6:56 PM 91.0 °F 28.0 °F 10% 29.64 in 10.0 mi WNW 12.7 mph - N/A   Clear
7:56 PM 86.0 °F 28.9 °F 13% 29.66 in 10.0 mi NW 5.8 mph - N/A   Clear
8:56 PM 80.1 °F 30.0 °F 16% 29.67 in 10.0 mi Calm Calm - N/A   Clear
9:56 PM 75.9 °F 30.9 °F 19% 29.70 in 10.0 mi NE 4.6 mph - N/A   Clear
10:56 PM 68.0 °F 36.0 °F 31% 29.72 in 10.0 mi Calm Calm - N/A   Clear
11:56 PM 64.9 °F 37.9 °F 37% 29.74 in 10.0 mi Calm Calm - N/A   Clear